Lid_Strength_Index
1 1 1 1 1 1 4 7 11 4 2 9 10 12 11 9 10 7 8 8 9 11 10 11 11 12 10 9 10 11 10 13 17 14 10 10 11 13 13 18 19 17 18 18
0 1 1 1 1 1 6 10 8 3 3 12 11 10 10 10 10 10 9 10 9 9 11 12 10 10 8 8 9 10 9 14 18 16 14 13 12 11 11 12 14 17 19 18
-1 -0 -0 -0 0 0 5 10 14 9 6 6 9 11 11 11 9 9 8 9 8 10 11 9 11 10 9 8 8 7 8 12 15 18 15 12 15 12 11 12 17 17 16 15
-1 -1 -1 -1 -1 -0 6 11 14 8 11 10 9 9 10 11 12 9 7 9 10 11 13 12 12 10 10 9 8 10 10 14 14 13 12 12 13 13 12 13 13 16 15 15
-1 -1 -2 -1 -1 -1 7 12 12 10 10 9 9 9 10 11 10 9 10 11 9 10 12 11 13 11 11 11 11 11 10 14 13 15 12 12 14 13 12 13 13 14 15 15
-1 -1 -2 -2 -2 -0 8 9 6 8 11 11 10 10 10 10 9 8 8 8 9 10 10 8 8 7 8 9 11 11 11 14 15 17 13 13 17 14 13 12 11 12 14 12
-1 -1 -1 -1 -1 -0 6 7 7 11 15 12 12 10 10 11 10 10 8 7 9 7 5 6 7 8 8 9 9 8 12 13 13 16 15 20 13 10 10 11 11 11 11 11
-1 -1 -1 -1 -1 -1 5 6 7 9 14 11 11 10 10 9 8 9 9 7 6 4 7 11 13 13 12 11 10 10 9 12 15 17 18 15 12 11 12 12 13 10 10 10
-1 -1 -1 -1 -1 -1 2 5 5 7 13 11 7 8 8 11 10 9 8 5 4 5 9 12 15 17 14 15 13 9 10 10 13 16 18 20 14 10 8 9 15 10 9 10
-1 -1 -1 -1 -1 -1 1 5 2 6 12 8 7 9 9 9 9 10 9 8 8 6 11 14 15 15 11 16 16 15 14 14 16 16 17 15 10 9 8 15 15 10 9 10
-0 -1 -1 -1 -1 -1 1 3 1 4 9 7 5 5 8 8 9 12 8 9 9 10 13 13 14 14 13 14 12 14 15 16 16 15 17 18 8 9 12 10 10 10 10 10
-0 -1 -1 -1 -1 0 0 4 1 1 5 7 3 4 4 4 5 7 8 9 9 9 11 11 11 13 12 13 16 10 15 12 14 13 13 9 8 9 8 8 9 9 9 10
-0 -0 -1 -0 -0 -1 1 5 3 2 5 5 6 7 4 2 3 4 9 8 6 8 7 9 10 13 11 14 14 12 11 8 12 11 10 9 8 8 7 7 8 8 8 9
-0 -0 -0 -0 -0 -1 -0 3 3 3 4 9 8 3 6 3 3 4 5 6 5 6 7 9 10 12 8 12 11 12 10 9 11 12 11 9 8 7 7 7 7 7 8 8
-0 -0 -0 -0 -0 -1 -0 2 2 2 5 9 9 5 3 2 3 4 4 4 6 7 9 9 11 9 9 11 10 12 10 11 12 13 9 9 9 7 6 7 7 7 7 8
0 -0 -0 -0 -1 -1 1 5 1 2 2 8 10 5 5 3 3 4 5 5 7 7 8 10 9 8 10 13 13 9 8 7 7 9 7 7 8 6 6 7 7 6 6 7
-0 -0 -1 -1 -1 0 4 6 3 0 1 6 9 9 5 4 5 6 6 6 8 9 10 10 10 10 10 14 14 9 8 7 7 6 7 8 7 8 6 6 6 5 6 6
-1 -1 -1 -1 -1 0 3 2 0 0 4 6 10 10 8 5 10 10 7 9 9 10 11 11 11 11 13 15 10 9 7 7 7 7 6 7 7 6 6 6 7 8 8 7
-0 0 1 3 4 5 4 0 0 0 4 8 9 11 13 7 9 10 9 9 13 9 13 12 11 13 14 11 10 10 8 7 6 6 8 7 7 7 7 7 8 8 8 8
1 4 7 8 5 0 -0 2 5 5 5 6 9 9 11 9 12 11 11 11 12 13 12 10 13 13 9 9 8 8 8 7 6 8 8 7 8 7 7 8 8 7 8 9
4 6 6 3 0 3 6 8 9 8 10 8 9 9 11 8 13 12 12 12 12 15 13 13 13 13 10 7 7 6 7 7 6 6 6 7 7 7 7 8 8 8 8 9
3 4 3 3 6 8 10 11 9 10 11 9 10 10 9 9 8 11 10 12 11 15 11 12 14 11 8 8 8 8 8 7 6 6 6 6 5 6 7 9 9 9 10 13
3 5 7 9 10 14 14 15 12 13 11 10 10 11 10 10 9 10 10 15 15 11 12 13 12 10 9 9 9 9 9 8 8 9 9 9 10 10 9 12 13 13 15 18
8 10 15 13 16 13 13 12 13 11 11 10 9 12 11 12 11 11 14 13 10 13 15 14 13 11 10 10 10 10 11 11 11 12 12 14 13 14 14 15 17 16 17 20
9 10 16 14 9 8 8 8 10 10 11 9 10 11 11 12 13 10 12 13 14 13 15 13 12 10 10 10 10 11 11 15 13 12 13 14 14 14 15 16 16 16 17 18
9 10 13 14 15 16 15 10 11 10 12 12 11 12 14 14 12 12 14 14 16 15 13 11 10 10 10 10 9 10 10 11 11 12 12 12 12 12 12 12 12 13 15 15
9 14 8 9 11 16 16 8 9 9 11 14 11 14 12 11 14 13 12 15 14 15 9 11 9 9 9 10 10 10 11 11 12 12 12 13 14 13 13 14 13 13 13 13